www.pogodaiklimat.ru

ПОГОДА в Naliya

  • Прогноз погоды в Naliya
  • Монитор погоды в Naliya
  • Климат города

АРХИВ ПОГОДЫ в Naliya

Время (UTC), дата Ветер
(напр.,м/с)
 
Видим.   Явления Облачность Т
(С)
Тd
(С)
f
(%)
Тe
(С)
Тes
(С)
Комфортность P
(гПа)
Po
(гПа)
Тmin
(С)
Tmax
(С)
R
(мм)
S
(см)
18 9.01 штиль 0 4000 м ясно +13.8 +4.8 55 +14 +14 1016.7 1017.0
21 9.01 штиль 0 4000 м ясно +11.2 +5.6 68 +11 +11 1016.1 1016.0
00 10.01 штиль 0 4000 м ясно +8.2 +4.6 78 +7 +7 1016.2 1016.0
03 10.01 штиль 0 10 км ясно +8.2 +3.6 73 +8 +9 1018.4 1018.0 +7.0
06 10.01 СВ 2 10 км ясно +20.2 -1.6 23 +21 +31 комфорт 1019.0 1019.0
09 10.01 С 3 10 км ясно +23.8 -0.4 20 +23 +30 комфорт 1016.3 1016.0
12 10.01 СВ 2 10 км ясно +23.6 +0.8 22 +23 +23 комфорт 1015.1 1015.0 +24.6
15 10.01 штиль 0 4000 м ясно +16.2 +0.5 34 +16 +16 1017.1 1017.0
18 10.01 штиль 0 4000 м ясно +11.0 -1.0 43 +11 +11 1018.0 1018.0
21 10.01 штиль 0 4000 м ясно +8.6 +1.9 63 +8 +8 1017.4 1017.0
00 11.01 штиль 0 4000 м ясно +6.2 0.0 64 +6 +6 1016.9 1017.0
03 11.01 штиль 0 10 км ясно +7.0 -1.5 55 +7 +8 1018.3 1018.0 +5.4
06 11.01 штиль 0 10 км ясно +22.0 +2.6 28 +22 +35 комфорт 1019.0 1019.0
09 11.01 штиль 0 10 км ясно +24.8 +1.7 22 +24 +36 комфорт 1015.3 1015.0
12 11.01 СЗ 3 10 км ясно +22.6 +8.8 41 +24 +24 комфорт 1014.5 1015.0 +25.8
15 11.01 штиль 0 4000 м ясно +17.4 +5.5 45 +17 +17 1016.1 1016.0
18 11.01 штиль 0 4000 м ясно +10.8 +1.3 52 +11 +11 1016.7 1017.0
21 11.01 штиль 0 4000 м ясно +8.6 +0.1 55 +8 +8 1015.8 1016.0
00 12.01 штиль 0 4000 м ясно +6.8 -0.1 61 +6 +6 1014.9 1015.0
03 12.01 штиль 0 10 км ясно +10.0 -3.4 39 +10 +11 1015.8 1016.0 +5.2
06 12.01 штиль 0 10 км ясно +24.8 -1.5 17 +23 +36 комфорт 1017.4 1017.0
09 12.01 ЮЗ 2 10 км ясно +27.0 +1.9 20 +25 +35 комфорт 1014.0 1014.0
12 12.01 ЮЗ 2 10 км ясно +23.4 +7.9 37 +24 +25 комфорт 1013.0 1013.0 +27.4
15 12.01 штиль 0 4000 м ясно +15.4 +3.7 46 +15 +15 1014.1 1014.0
18 12.01 штиль 0 4000 м ясно +12.0 +2.9 54 +12 +12 1015.0 1015.0
21 12.01 штиль 0 4000 м ясно +9.8 +1.1 55 +9 +9 1014.5 1015.0
00 13.01 штиль 0 4000 м ясно +9.0 0.0 53 +9 +9 1013.9 1014.0
03 13.01 штиль 0 10 км ясно +8.4 -0.2 55 +8 +9 1015.2 1015.0 +6.8
06 13.01 ЮВ 1 10 км 4/0
[Ci sp]
+23.2 +9.6 42 +25 +35 комфорт 1015.8 1016.0
09 13.01 штиль 0 10 км ясно +26.2 +10.6 38 +27 +40 жарко 1013.1 1013.0
12 13.01 Ю 3 10 км ясно +24.4 +13.1 49 +26 +27 жарко 1012.3 1012.0 +27.6
15 13.01 штиль 0 4000 м ясно +15.6 +4.5 48 +16 +16 1013.5 1014.0
18 13.01 штиль 0 4000 м 3/0
[Ci sp]
+13.2 +4.0 54 +13 +13 1013.7 1014.0
21 13.01 штиль 0 4000 м ясно +11.8 +0.2 45 +12 +12 1012.7 1013.0
00 14.01 штиль 0 4000 м 3/0
[Ci fib]
+10.0 +0.1 50 +10 +10 1011.9 1012.0
03 14.01 штиль 0 10 км 5/0
[Ci sp]
+10.0 +2.0 58 +10 +11 1013.3 1013.0 +7.8
06 14.01 штиль 0 10 км 6/0 2000 м
[Ac trans]
+23.4 +5.7 32 +24 +32 комфорт 1014.4 1014.0
09 14.01 ЮЗ 2 10 км 6/0 2000 м
[Sc Ac trans]
+26.4 +10.0 36 +25 +31 комфорт 1012.7 1013.0
12 14.01 штиль 0 10 км 5/5 2000 м
[Cb calv]
+25.0 +11.7 43 +26 +27 жарко 1012.9 1013.0 +27.0
15 14.01 СВ 2 4000 м ясно +19.4 +7.7 47 +21 +21 комфорт 1015.2 1015.0
18 14.01 штиль 0 4000 м 3/0 2000 м
[Ac trans]
+16.4 +6.7 53 +16 +16 1015.5 1016.0
21 14.01 штиль 0 4000 м 3/0 2000 м
[Ac trans]
+13.8 +7.7 67 +14 +14 1015.2 1015.0
00 15.01 штиль 0 4000 м ясно +11.2 +6.3 72 +11 +11 1014.6 1015.0
03 15.01 штиль 0 10 км 4/0 2000 м
[Ac trans]
+11.6 +6.6 71 +11 +12 1016.6 1017.0 +10.0
06 15.01 СВ 2 10 км 3/0
[Ci fib]
+19.2 +7.5 47 +21 +31 комфорт 1018.0 1018.0
09 15.01 С 2 10 км ясно +25.0 +7.7 33 +25 +35 комфорт 1015.5 1016.0
12 15.01 штиль 0 10 км ясно +26.0 +12.1 42 +27 +28 жарко 1014.6 1015.0 +26.6
15 15.01 С 1 4000 м ясно +20.2 +10.2 53 +23 +23 комфорт 1016.6 1017.0
18 15.01 С 2 4000 м ясно +17.6 +10.1 61 +18 +18 1017.6 1018.0
21 15.01 С 2 4000 м ясно +15.4 +8.8 65 +16 +16 1017.3 1017.0
00 16.01 С 2 4000 м ясно +13.4 +7.7 68 +13 +13 1017.5 1018.0
03 16.01 С 2 10 км 1/0
[Ci fib]
+13.0 +8.6 75 +13 +14 1018.8 1019.0 +11.7
06 16.01 СВ 2 10 км 1/0
[Ci fib]
+20.6 +6.9 41 +22 +32 комфорт 1019.5 1020.0
09 16.01 С 2 10 км 1/0
[Ci fib]
+23.6 +8.7 39 +24 +33 комфорт 1016.4 1016.0
12 16.01 С 2 10 км ясно +25.0 +5.4 28 +25 +25 комфорт 1015.7 1016.0 +25.6
15 16.01 штиль 0 4000 м ясно +19.2 +3.6 36 +19 +19 1017.6 1018.0

 

Местоположение метеостанции Naliya (Gujarat, Индия): широта 23.25 долгота 68.85 высота над уровнем моря 21 м.

В архиве по умолчанию представлена погода в Naliya за последнюю неделю. Архивные данные за месяц целиком и за предыдущие месяцы, начиная с января 2011 года, Вы можете получить, выбрав интересующий диапазон дат из раскрывающегося списка и нажав кнопку "Ввод!".

Внимание! Время в таблицах - всемирное. Для получения местного времени необходимо прибавить поправку, которая в Naliya равна 5.5 ч.

Ветер - указаны скорость ветра в м/с - средняя за 10 мин, порывы в срок и между сроками (в фигурных скобках) и направление, откуда дует ветер: С - северный, СВ - северо-восточный, В - восточный, ЮВ - юго-восточный, Ю - южный, ЮЗ - юго-западный, З - западный, СЗ - северо-западный.
Видимость - горизонтальная дальность видимости в метрах или километрах. При видимости от 1 до 10 км при отсутствии осадков обычно наблюдается дымка, при ухудшении видимости до 1 км и менее - туман. В сухую погоду видимость может ухудшаться дымом, пылью или мглою.
Явления - указаны атмосферные явления, наблюдавшиеся в срок или в последний час перед сроком; фигурными скобками обозначены явления, наблюдавшиеся между сроками (за 1-3 часа до срока); квадратными скобками обозначены град или гололедные отложения с указанием их диаметра в мм.
Облачность - указаны через наклонную черту общая и нижняя облачность в баллах и высота нижней границы облаков в метрах; квадратными скобками обозначены формы облаков: Ci - перистые, Cs - перисто-слоистые, Cc - перисто-кучевые, Ac - высококучевые, As - высокослоистые, Sc - слоисто-кучевые, Ns - слоисто-дождевые, Cu - кучевые, Cb - кучево-дождевые. Подробнее классификацию облаков см. в Атласе облаков (PDF).
T - Температура воздуха - температура, измеренная на высоте 2 м над землей.
Td - Температура точки росы - температура, при понижении до которой содержащийся в воздухе водяной пар достигнет насыщения.
f - Относительная влажность воздуха - влажноcть воздуха, измеренная на высоте 2 м над землей.
Te - Эффективная температура - температура, которую ощущает одетый по сезону человек в тени. Характеристика душности погоды. При расчете учитывается влияние влажности воздуха и скорости ветра на теплоощущения человека.
Tes - Эффективная температура на солнце - температура, которую ощущает человек, с поправкой на солнечный нагрев. Характеристика знойности погоды. Зависит от высоты солнца над горизонтом, облачности и скорости ветра. Ночью, в пасмурную погоду, а также при ветре 12 м/с и более поправка равна нулю.
P - Атмосферное давление - приведенное к уровню моря атмосферное давление.
Po - Атмосферное давление - измеренное на уровне метеостанции атмосферное давление.
Tmin - Минимальная температура - минимум температуры воздуха на высоте 2 м над землей.
Tmax - Максимальная температура - максимум температуры воздуха на высоте 2 м над землей.
R - Количество осадков - Количество выпавших осадков, мм. При наведении курсора мыши на число - период времени, за который выпало указанное количество осадков.
S - Снежный покров - Высота снежного покрова, см. При наведении курсора мыши на число - состояние снежного покрова и степень покрытия местности в баллах.